Back to catalog

STARLINK-36946

AliveCommunicationsSSO
NORAD 68382·PAYLOAD·🇺🇸 United States

Launched Mar 26, 2026 from Vandenberg Space Force Base

Loading…

Next Passes (next 24 hours)

TLE

FreshSource: CelesTrak SupGP

Epoch: Sep 14, 2026, 22:49 UTC

1 68382C 26063C   26257.95118056 -.00021028  00000+0 -65308-3 0  2577
2 68382  97.2859  38.9372 0000816  86.6330 189.1229 15.33435209    10

Track STARLINK-36946 in real time with AllMySat

Download on the App Store